KAZSAT-2

Last updated on Sun Jun 21 2026 00:03:05 GMT+0000 (Coordinated Universal Time)

1 37749U 11035B 26171.40918537 -.00000202 00000+0 00000+0 0 9997 2 37749 0.0368 204.5959 0001352 309.1308 348.7192 1.00271191 53439
UTC large
Height (km)
Speed (km/s)
/
Latitude / Longitude
Inclination (degrees)
Orbital Period (minutes)
Azimuth
Elevation
Range (km)
Doppler Factor

Next 0 passes for location: London (51.5072 / 0.1276)

No passes found over London.
KAZSAT-2